www.pogodaiklimat.ru

Погода и климат >> Архив погоды >> Финляндия >> Киттила Кенттарова


ПОГОДА в Киттила Кенттарова

  • Прогноз погоды в Киттила Кенттарова
  • Монитор погоды в Киттила Кенттарова

АРХИВ ПОГОДЫ в Киттила Кенттарова

Время (UTC), дата Ветер
(напр.,м/с)
 
Видим.   Явления Облачность Т
(С)
Тd
(С)
f
(%)
Тe
(С)
Тes
(С)
Комфортность P
(гПа)
Po
(гПа)
Тmin
(С)
Tmax
(С)
R
(мм)
R24
(мм)
S
(см)
16 10.08 ЮВ 3 н/о 9/1 1000 м
[]
+14.0 +8.5 69 +13 +14 1012.8 971.6
17 10.08 ЮВ 3-4
{5}
н/о 10/1 1000 м
[]
+13.0 +8.7 75 +12 +12 1012.8 971.5
18 10.08 ЮВ 2-3
{4}
н/о 10/10 1500 м
[]
+11.6 +9.4 86 +10 +10 1013.0 971.4 +6.2 +15.4 0.4
19 10.08 ЮВ 3 н/о 10/9 1500 м
[]
+10.7 +9.4 92 +9 +9 1013.0 971.3
20 10.08 ЮВ 2 н/о 9/3 1500 м
[]
+10.1 +9.1 94 +8 +8 1013.1 971.3
21 10.08 Ю 2-4
{5}
н/о 9/3 1500 м
[]
+9.6 +8.7 94 +8 +8 1013.3 971.4
22 10.08 Ю 3-5
{5}
н/о 10/9 1500 м
[]
+9.7 +8.5 92 +7 +7 1013.0 971.2
23 10.08 Ю 3-6
{6}
н/о 10/9 1500 м
[]
+9.8 +7.9 88 +7 +7 1012.8 971.0
00 11.08 Ю 4-7
{7}
н/о 9/9 2000 м
[]
+10.5 +7.0 79 +8 +8 1012.7 971.0
01 11.08 Ю 2-5
{5}
н/о 10/0 1500 м
[]
+10.2 +7.2 82 +9 +9 1012.6 970.9
02 11.08 ЮВ 3 н/о 10/10 1000 м
[]
+9.0 +8.0 93 +6 +6 1012.5 970.5
03 11.08 Ю 3-4
{5}
н/о 10/10 1000 м
[]
+8.8 +8.4 97 +6 +6 1012.3 970.4 0.2
04 11.08 Ю 3 н/о 10/10 1500 м
[]
+9.2 +8.4 95 +7 +7 1012.1 970.2
05 11.08 ЮВ 3-5
{5}
н/о 9/0 1500 м
[]
+9.9 +8.5 91 +8 +8 1011.7 970.0
06 11.08 ЮВ 3-5
{6}
н/о 6/6
[]
+12.3 +8.8 79 +11 +12 1011.2 969.8 +8.7 +12.3 0.6
07 11.08 Ю 3 н/о ясно +13.7 +8.9 73 +13 +17 1010.7 969.5
08 11.08 Ю 3-7
{7}
н/о 3/0
[]
+15.3 +9.0 66 +15 +19 1010.3 969.4
09 11.08 Ю 4-6
{8}
н/о 3/0
[]
+15.7 +8.7 63 +15 +19 1010.0 969.1
10 11.08 Ю 4 н/о 5/0
[]
+16.5 +8.7 60 +16 +20 1009.8 969.0
11 11.08 ЮВ 4 н/о 4/4 600 м
[]
+17.8 +8.5 54 +18 +21 1009.3 968.7
12 11.08 Ю 4-7
{8}
н/о 1/0
[]
+18.1 +8.6 54 +18 +23 1008.7 968.2
13 11.08 Ю 4-8
{8}
н/о 3/0
[]
+18.0 +8.8 55 +18 +21 1008.6 968.1
14 11.08 Ю 3 н/о 3/0
[]
+17.7 +8.9 56 +18 +21 1008.3 967.8
15 11.08 ЮВ 4-7
{7}
н/о 8/0
[]
+17.4 +9.3 59 +17 +18 1008.0 967.5
16 11.08 ЮВ 3 н/о 8/0
[]
+16.9 +9.9 63 +17 +18 1007.9 967.3
17 11.08 ЮВ 3 н/о 8/4
[]
+16.3 +10.0 66 +16 +16 1007.8 967.1
18 11.08 ЮВ 3-4
{4}
н/о 6/6 1000 м
[]
+15.3 +10.5 73 +15 +15 1007.9 967.1 +12.3 +18.4
19 11.08 ЮВ 3-5
{5}
н/о 8/5 1000 м
[]
+13.9 +10.2 78 +13 +13 1008.2 967.2
20 11.08 Ю 3 н/о 8/0
[]
+13.8 +10.2 79 +13 +13 1008.2 967.2
21 11.08 Ю 3-4
{5}
н/о 4/1 600 м
[]
+12.5 +10.1 85 +11 +11 1008.5 967.3
22 11.08 Ю 3 н/о 9/3 1000 м
[]
+11.8 +10.3 91 +10 +10 1008.6 967.3
23 11.08 Ю 4 н/о 10/10 1000 м
[]
+12.3 +11.1 92 +10 +10 1008.5 967.2
00 12.08 Ю 3-5
{6}
н/о 10/10 200 м
[]
+12.7 +11.8 94 +11 +11 1008.3 967.1
01 12.08 Ю 3 н/о 10/10 200 м
[]
+12.3 +12.0 98 +11 +11 1008.1 966.8
02 12.08 Ю 4 н/о 10/10 100 м
[]
+12.3 +12.1 99 +10 +10 1007.7 966.4
03 12.08 Ю 4-7
{8}
н/о 10/10 100 м
[]
+12.3 +12.0 98 +10 +10 1007.6 966.4 0.1
04 12.08 Ю 4-8
{9}
н/о 10/0 100 м
[]
+12.3 +12.0 98 +10 +10 1007.5 966.2
05 12.08 Ю 4-8
{8}
н/о 10/0 100 м
[]
+12.0 +11.7 98 +10 +10 1007.3 966.0 1
06 12.08 Ю 4-7
{8}
н/о 10/10 100 м
[]
+12.1 +11.8 98 +10 +10 1007.2 966.0 +11.7 +15.3 3
07 12.08 Ю 3 н/о 10/10 100 м
[]
+12.8 +12.3 97 +11 +11 1007.1 966.0
08 12.08 Ю 3 н/о 10/10 100 м
[]
+13.0 +12.2 95 +12 +12 1007.1 966.0
09 12.08 Ю 2-5
{7}
н/о 9/9 200 м
[]
+13.8 +12.0 89 +13 +14 1006.8 965.8
10 12.08 ЮВ 3-6
{7}
н/о 10/10 300 м
[]
+14.1 +12.2 88 +13 +13 1006.8 965.8
11 12.08 Ю 4-7
{8}
н/о 10/0 200 м
[]
+13.6 +11.8 89 +12 +12 1006.8 965.8
12 12.08 Ю 3-6
{7}
н/о 10/10 200 м
[]
+13.4 +11.1 86 +12 +12 1006.7 965.6
13 12.08 Ю 3 н/о 10/10 200 м
[]
+12.8 +11.1 89 +11 +11 1006.7 965.6
14 12.08 Ю 3 н/о 10/10 200 м
[]
+12.7 +11.3 91 +11 +11 1006.6 965.5
15 12.08 Ю 3-5
{5}
н/о 10/10 200 м
[]
+12.6 +11.3 92 +11 +11 1006.4 965.2
16 12.08 ЮВ 3 н/о 10/10 200 м
[]
+12.4 +11.1 92 +11 +11 1006.3 965.1
17 12.08 ЮВ 2-3
{5}
н/о 10/0 100 м
[]
+11.8 +11.4 97 +11 +11 1006.3 965.0 0.2
18 12.08 ЮВ 1-2
{3}
н/о 10/10 100 м
[]
+11.7 +11.3 97 +11 +11 1006.3 965.0 +11.7 +14.2 0.2
19 12.08 ЮВ 2-3
{3}
н/о 10/0 100 м
[]
+11.6 +11.2 97 +10 +10 1006.2 964.9
20 12.08 ЮВ 1-2
{2}
н/о 10/0 50 м
[]
+11.5 +11.2 98 +11 +11 1006.0 964.7
21 12.08 ЮВ 1-2
{3}
н/о ?/? +11.4 +11.2 99 +11 +11 1006.0 964.7
22 12.08 ЮВ 2 н/о ?/? +11.5 +11.3 99 +10 +10 1006.1 964.8
23 12.08 ЮВ 2 н/о ?/? +11.4 +11.3 99 +10 +10 1005.9 964.6
00 13.08 ЮВ 2-2
{3}
н/о ?/? +11.5 +11.3 99 +10 +10 1005.7 964.4
01 13.08 штиль 0-1
{2}
н/о ?/? +11.5 +11.4 99 +11 +11 1005.8 964.5
02 13.08 СВ 1 н/о ?/? +11.5 +11.4 99 +11 +11 1005.6 964.3
03 13.08 СВ 1-1
{2}
н/о ?/? +11.6 +11.5 99 +11 +11 1005.5 964.2 0.2
04 13.08 штиль 0 н/о ?/? +11.7 +11.6 99 +11 +11 1005.4 964.2
05 13.08 штиль 0-1
{1}
н/о ?/? +11.8 +11.7 99 +11 +11 1005.2 964.0 0.1
06 13.08 штиль 0-1
{1}
н/о ?/? +12.1 +12.0 99 +11 +11 1005.2 964.0 +11.4 +12.1 1
07 13.08 штиль 0 н/о 10/10 50 м
[]
+12.5 +12.4 99 +12 +12 1005.2 964.1
08 13.08 С 1-1
{1}
н/о ?/? +12.7 +12.6 99 +13 +13 1005.2 964.1
09 13.08 штиль 0-1
{2}
н/о 10/10 50 м
[]
+13.4 +13.3 99 +13 +13 1005.0 964.0
10 13.08 СВ 1 н/о 10/10 50 м
[]
+13.6 +13.4 99 +14 +14 1005.1 964.1
11 13.08 СВ 2 н/о 10/9 100 м
[]
+14.4 +13.5 94 +14 +14 1004.6 963.8
12 13.08 СВ 1-2
{3}
н/о 9/9 300 м
[]
+15.4 +13.3 87 +16 +17 1004.4 963.7
13 13.08 В 3 н/о 10/10 200 м
[]
+15.4 +13.4 88 +15 +15 1004.1 963.4
14 13.08 В 2 н/о 10/10 600 м
[]
+13.6 +13.4 99 +13 +13 1004.3 963.3
15 13.08 СВ 1-2
{2}
н/о 10/10 300 м
[]
+14.0 +13.9 99 +14 +14 1004.0 963.2 1
16 13.08 В 2 н/о 10/10 1000 м
[]
+13.5 +13.3 99 +13 +13 1004.0 963.1
17 13.08 В 2 н/о 9/9 50 м
[]
+13.9 +13.7 99 +13 +13 1004.1 963.2
18 13.08 В 2-3
{4}
н/о 9/9 100 м
[]
+13.5 +13.4 99 +13 +13 1004.0 963.0 +12.1 +16.0 4
19 13.08 В 2 н/о 10/10 50 м
[]
+13.4 +13.2 99 +13 +13 1003.8 962.8
20 13.08 В 2 н/о 10/10 50 м
[]
+13.1 +13.0 99 +12 +12 1003.7 962.7
21 13.08 В 1-2
{3}
н/о 10/10 50 м
[]
+13.1 +13.0 99 +13 +13 1003.8 962.8
22 13.08 С 2 н/о ?/? +12.4 +12.3 99 +11 +11 1003.7 962.7
23 13.08 С 3 н/о 10/10 100 м
[]
+11.5 +11.5 100 +10 +10 1003.7 962.5
00 14.08 С 2-3
{3}
н/о ?/? +11.1 +11.0 99 +10 +10 1003.7 962.5 0.7
01 14.08 С 2 н/о ?/? +10.9 +10.8 99 +9 +9 1003.6 962.3
02 14.08 С 2-4
{4}
н/о ?/? +10.7 +10.7 100 +9 +9 1003.6 962.3 2
03 14.08 С 3-4
{4}
н/о 10/10 50 м
[]
+10.3 +10.3 100 +8 +8 1003.6 962.2 0.2
04 14.08 СВ 2 н/о ?/? +10.2 +10.2 100 +9 +9 1003.6 962.3
05 14.08 С 2 н/о ?/? +10.1 +10.1 100 +8 +8 1003.6 962.2
06 14.08 С 1-2
{3}
н/о ?/? +10.7 +10.6 99 +10 +10 1003.3 962.0 +10.1 +13.6 6
07 14.08 С 2-3
{3}
н/о ?/? +10.9 +10.9 100 +9 +9 1003.3 962.0
08 14.08 С 2-3
{3}
н/о ?/? +11.5 +11.5 100 +10 +10 1003.2 962.0 0.1
09 14.08 СВ 2-3
{3}
н/о ?/? +12.1 +12.1 100 +11 +11 1003.0 961.9 0.1
10 14.08 СВ 2 н/о ?/? +12.3 +12.2 99 +11 +11 1003.0 961.9
11 14.08 С 2 н/о 9/9 100 м
[]
+13.7 +13.4 98 +13 +14 1002.6 961.7
12 14.08 СЗ 2-3
{4}
н/о 9/9 50 м
[]
+13.9 +13.6 98 +13 +14 1002.6 961.8
13 14.08 СВ 2 н/о 10/8 200 м
[]
+13.8 +13.1 96 +13 +14 1002.5 961.6
14 14.08 С 2-4
{4}
н/о 6/1 200 м
[]
+14.4 +13.9 97 +14 +15 1002.1 961.4 0.5
15 14.08 В 3-4
{6}
н/о 9/9 300 м
[]
+13.6 +12.7 94 +12 +13 1002.3 961.5 0.2
16 14.08 С 2 н/о 9/1 1500 м
[]
+13.9 +13.6 98 +13 +14 1002.2 961.4
17 14.08 С 2 н/о 1/1 1500 м
[]
+13.0 +12.7 98 +12 +13 1002.5 961.5
18 14.08 СВ 3-6
{6}
н/о 9/9 600 м
[]
+13.5 +13.3 99 +12 +12 1002.5 961.6 +10.6 +15.3 3
19 14.08 В 3 н/о 10/10 300 м
[]
+12.7 +12.2 97 +11 +11 1002.7 961.7
20 14.08 В 3 н/о 10/10 300 м
[]
+12.2 +12.0 99 +10 +10 1003.0 961.9
21 14.08 СВ 2-4
{4}
н/о 10/10 200 м
[]
+11.4 +11.1 98 +10 +10 1003.2 962.0
22 14.08 СВ 2 н/о 10/10 100 м
[]
+11.1 +10.8 98 +10 +10 1003.1 961.9
23 14.08 СВ 2 н/о 10/10 100 м
[]
+11.0 +10.7 98 +10 +10 1003.1 961.8
00 15.08 СВ 2-4
{4}
н/о 10/10 50 м
[]
+10.8 +10.6 99 +9 +9 1003.1 961.9
01 15.08 СВ 2 н/о ?/? +10.8 +10.6 99 +9 +9 1003.2 961.9
02 15.08 СВ 2-4
{4}
н/о ?/? +10.9 +10.8 99 +9 +9 1003.0 961.7
03 15.08 СВ 3-6
{6}
н/о ?/? +10.7 +10.6 99 +8 +8 1003.0 961.7
04 15.08 СВ 3-5
{6}
н/о ?/? +10.7 +10.6 99 +8 +8 1002.9 961.6
05 15.08 СВ 3 н/о 10/10 50 м
[]
+10.7 +10.6 99 +8 +8 1002.9 961.6
06 15.08 СВ 3-5
{5}
н/о 10/10 50 м
[]
+10.9 +10.8 99 +9 +9 1002.9 961.7 +10.7 +13.6 0.4
07 15.08 СВ 2 н/о 10/10 50 м
[]
+10.8 +10.7 99 +9 +9 1003.0 961.7
08 15.08 СВ 2 н/о 10/10 50 м
[]
+11.5 +11.1 97 +10 +10 1002.9 961.7
09 15.08 СВ 1-3
{4}
н/о 10/10 100 м
[]
+11.8 +11.1 95 +12 +12 1002.9 961.7
10 15.08 С 2 н/о 10/10 200 м
[]
+12.6 +11.3 92 +12 +12 1002.7 961.7
11 15.08 С 2-3
{5}
н/о 9/9 300 м
[]
+13.9 +11.1 83 +13 +14 1002.4 961.5
12 15.08 С 2-3
{3}
н/о 9/9 300 м
[]
+14.2 +12.1 87 +14 +14 1002.3 961.5
13 15.08 СВ 2 н/о 9/9 1000 м
[]
+15.2 +11.4 78 +15 +16 1002.1 961.5
14 15.08 В 3-4
{5}
н/о 6/6 600 м
[]
+14.7 +11.9 83 +14 +14 1002.2 961.5
15 15.08 В 2-4
{4}
н/о 4/4 600 м
[]
+15.2 +11.5 79 +15 +17 1002.3 961.7 0.1
16 15.08 СВ 3 н/о 3/3 600 м
[]
+14.8 +10.3 74 +14 +15 1002.6 961.9
17 15.08 СВ 4 н/о ясно +14.0 +10.6 80 +13 +13 1003.1 962.2
18 15.08 СВ 5-7
{7}
н/о 1/1 1500 м
[]
+11.5 +9.7 89 +9 +9 1004.2 963.0 +10.8 +16.5 0.1
19 15.08 В 4-6
{8}
н/о 6/0 600 м
[]
+10.4 +9.1 92 +8 +8 1004.8 963.3
20 15.08 СВ 3-5
{5}
н/о 9/9 200 м
[]
+9.5 +8.8 95 +7 +7 1005.4 963.8
21 15.08 СВ 3-4
{5}
н/о 9/9 100 м
[]
+9.5 +8.7 95 +7 +7 1005.5 964.0
22 15.08 СВ 1 н/о 10/10 100 м
[]
+9.5 +8.7 95 +9 +9 1005.8 964.2
23 15.08 СВ 2 н/о 10/10 100 м
[]
+9.3 +8.7 96 +7 +7 1006.1 964.5
00 16.08 С 2-3
{4}
н/о 10/10 100 м
[]
+9.4 +8.8 96 +8 +8 1006.6 965.0
01 16.08 СВ 2 н/о 10/10 200 м
[]
+9.3 +8.4 94 +7 +7 1006.7 965.1
02 16.08 СВ 2-3
{3}
н/о 9/9 300 м
[]
+7.1 +6.8 98 +5 +5 1007.4 965.4
03 16.08 В 1-1
{2}
н/о 10/10 300 м
[]
+8.6 +8.3 98 +8 +8 1007.6 965.8
04 16.08 З 1 н/о 10/10 300 м
[]
+9.3 +8.7 96 +9 +9 1007.7 966.0
05 16.08 ЮВ 1-1
{1}
н/о 10/0 300 м
[]
+9.9 +8.6 92 +9 +9 1007.8 966.2
06 16.08 ЮВ 1-2
{2}
н/о 10/10 300 м
[]
+10.6 +8.8 89 +10 +10 1008.0 966.4 +7.0 +11.5
07 16.08 В 1 н/о 10/10 300 м
[]
+11.4 +9.3 87 +11 +11 1007.9 966.5
08 16.08 ЮВ 2 н/о 10/10 300 м
[]
+11.7 +9.0 83 +11 +11 1008.0 966.6
09 16.08 ЮВ 3-5
{5}
н/о 9/9 300 м
[]
+12.7 +9.0 78 +11 +12 1008.1 966.9
10 16.08 ЮВ 3-5
{5}
н/о 10/10 300 м
[]
+13.0 +9.3 78 +12 +12 1008.2 967.0 0.1
11 16.08 ЮВ 3 н/о 9/9 600 м
[]
+14.4 +9.7 73 +14 +14 1008.0 967.1
12 16.08 ЮВ 4-6
{6}
н/о 9/9 600 м
[]
+14.3 +9.8 74 +13 +13 1008.0 967.0
13 16.08 ЮВ 3 н/о 10/10 600 м
[]
+14.2 +10.1 76 +13 +13 1008.2 967.1
14 16.08 ЮВ 3 н/о 9/6 600 м
[]
+15.1 +9.8 71 +14 +15 1007.6 966.7
15 16.08 Ю 4-7
{8}
н/о 9/8 600 м
[]
+14.0 +10.3 78 +13 +13 1007.4 966.4
16 16.08 ЮВ 3 н/о 10/9 600 м
[]
+13.3 +10.9 85 +12 +12 1007.7 966.6
17 16.08 ЮВ 4-6
{6}
н/о 9/9 2000 м
[]
+12.8 +12.2 96 +11 +11 1007.6 966.5 0.9
18 16.08 Ю 4-7
{8}
н/о 10/10 1000 м
[]
+11.9 +11.4 97 +10 +10 1007.9 966.6 +10.6 +15.3 1
19 16.08 ЮВ 4 н/о 10/0 2000 м
[]
+11.2 +11.0 99 +9 +9 1007.6 966.2
20 16.08 ЮВ 4-6
{6}
н/о 9/0 300 м
[]
+10.8 +10.7 99 +8 +8 1007.6 966.1
21 16.08 Ю 4-6
{7}
н/о 10/10 200 м
[]
+11.4 +11.3 99 +9 +9 1007.4 966.0
22 16.08 Ю 4 н/о 10/10 100 м
[]
+11.7 +11.5 99 +9 +9 1007.1 965.8
23 16.08 Ю 4 н/о 10/10 100 м
[]
+11.6 +11.4 99 +9 +9 1007.1 965.8
00 17.08 Ю 4-6
{8}
н/о 9/8 200 м
[]
+11.1 +10.9 99 +9 +9 1006.8 965.4
01 17.08 Ю 4 н/о 10/10 100 м
[]
+11.1 +10.9 99 +9 +9 1006.4 965.1
02 17.08 Ю 5-8
{8}
н/о 10/0 100 м
[]
+11.3 +11.0 98 +8 +8 1006.7 965.4
03 17.08 ЮЗ 4-8
{8}
н/о 10/10 100 м
[]
+11.2 +11.0 99 +9 +9 1006.7 965.3
04 17.08 ЮЗ 3 н/о 10/10 100 м
[]
+11.1 +10.8 98 +9 +9 1007.0 965.6
05 17.08 ЮЗ 4 н/о 10/10 200 м
[]
+11.1 +10.7 97 +9 +9 1007.2 965.8
06 17.08 ЮЗ 4-7
{8}
н/о 10/10 200 м
[]
+11.4 +10.9 97 +9 +9 1007.4 966.0 +10.6 +11.9 4
07 17.08 Ю 3-7
{7}
н/о 9/0 200 м
[]
+11.8 +11.0 95 +10 +10 1007.5 966.2
08 17.08 ЮЗ 4 н/о 9/9 200 м
[]
+12.5 +11.5 94 +10 +11 1007.5 966.3
09 17.08 ЮЗ 3-5
{6}
н/о 9/3 200 м
[]
+13.3 +11.6 89 +12 +14 1007.5 966.3
10 17.08 Ю 3 н/о 9/9 200 м
[]
+13.7 +13.0 96 +12 +13 1007.6 966.5
11 17.08 Ю 4 н/о 9/8 300 м
[]
+14.9 +12.1 83 +14 +14 1007.6 966.7
12 17.08 Ю 3-6
{8}
н/о 9/8 600 м
[]
+15.4 +12.2 81 +15 +16 1007.5 966.7
13 17.08 Ю 3 н/о 9/9 600 м
[]
+15.0 +12.3 84 +14 +15 1007.4 966.5
14 17.08 Ю 4 н/о 9/9 300 м
[]
+14.8 +12.6 87 +14 +14 1007.2 966.3

 

Местоположение метеостанции Киттила Кенттарова (Финляндия): широта 67.99 долгота 24.24 высота над уровнем моря 347 м.

В архиве по умолчанию представлена погода в Киттила Кенттарова за последнюю неделю. Архивные данные за месяц целиком и за предыдущие месяцы, начиная с января 2011 года, Вы можете получить, выбрав интересующий диапазон дат из раскрывающегося списка и нажав кнопку "Ввод!".


*Определитесь, кто Вы:
робот инопланетянин человек

Внимание! Время в таблицах - всемирное. Для получения местного времени необходимо прибавить поправку, которая равна 1 ч.

Смотрите также архив погоды в соседних городах и на ближайших метеорологических станциях:

Погода в Киттила Маторова (Финляндия) (1 км)
Погода в Киттиля Ломполонвуома (Финляндия) (2 км)
Погода в Муонио Саммалтунтури (Финляндия) (5 км)
Погода в Муонио Лаукукеро (Финляндия) (12 км)
Погода в Муонио Аламуонио (Финляндия) (23 км)
Погода в Киттила Левитунтури (Финляндия) (35 км)
Погода в Киттиля (Финляндия) (41 км)
Погода в Киттиля (Финляндия) (47 км)
Погода в Паркаломполо (Швеция) (66 км)
Погода в Киттила Покка (Финляндия) (67 км)

Пояснения к столбцам:

Ветер - указаны скорость ветра в м/с - средняя за 10 мин, порывы в срок и между сроками (в фигурных скобках) и направление, откуда дует ветер: С - северный, СВ - северо-восточный, В - восточный, ЮВ - юго-восточный, Ю - южный, ЮЗ - юго-западный, З - западный, СЗ - северо-западный.
Видимость - горизонтальная дальность видимости в метрах или километрах. При видимости от 1 до 10 км при отсутствии осадков обычно наблюдается дымка, при ухудшении видимости до 1 км и менее - туман. В сухую погоду видимость может ухудшаться дымом, пылью или мглою.
Явления - указаны атмосферные явления, наблюдавшиеся в срок или в последний час перед сроком; фигурными скобками обозначены явления, наблюдавшиеся между сроками (за 1-3 часа до срока); квадратными скобками обозначены град или гололедные отложения с указанием их диаметра в мм.
Облачность - указаны через наклонную черту общая и нижняя облачность в баллах и высота нижней границы облаков в метрах; квадратными скобками обозначены формы облаков: Ci - перистые, Cs - перисто-слоистые, Cc - перисто-кучевые, Ac - высококучевые, As - высокослоистые, Sc - слоисто-кучевые, Ns - слоисто-дождевые, Cu - кучевые, Cb - кучево-дождевые. Подробнее классификацию облаков см. в Атласе облаков (PDF).
T - Температура воздуха - температура, измеренная на высоте 2 м над землей.
Td - Температура точки росы - температура, при понижении до которой содержащийся в воздухе водяной пар достигнет насыщения.
f - Относительная влажность воздуха - влажноcть воздуха, измеренная на высоте 2 м над землей.
Te - Эффективная температура - температура, которую ощущает одетый по сезону человек в тени. Характеристика душности погоды. При расчете учитывается влияние влажности воздуха и скорости ветра на теплоощущения человека.
Tes - Эффективная температура на солнце - температура, которую ощущает человек, с поправкой на солнечный нагрев. Характеристика знойности погоды. Зависит от высоты солнца над горизонтом, облачности и скорости ветра. Ночью, в пасмурную погоду, а также при ветре 12 м/с и более поправка равна нулю.
P - Атмосферное давление - приведенное к уровню моря атмосферное давление.
Po - Атмосферное давление - измеренное на уровне метеостанции атмосферное давление.
Tmin - Минимальная температура - минимум температуры воздуха на высоте 2 м над землей.
Tmax - Максимальная температура - максимум температуры воздуха на высоте 2 м над землей.
R - Количество осадков - Количество выпавших осадков за период времени, мм. При наведении курсора мыши на число - период времени, за который выпало указанное количество осадков.
R24 - Количество осадков - Количество выпавших осадков за 24 часа, мм.
S - Снежный покров - Высота снежного покрова, см. При наведении курсора мыши на число - состояние снежного покрова и степень покрытия местности в баллах.